CW9009 Weather Reports


Display with metric or nautical units.
time (UTC)temp
F
wind
direction
speed
MPH
gust
MPH
rain 1hr
in
rain 24hr
in
rain mn
in
humidity
%
barometer
mb
20260509220418 78 302 1.0 2.0 0.00 0.00 0.00 19 1017.2
20260509215439 77 277 1.0 1.0 0.00 0.00 0.00 20 1017.3
20260509214418 77 263 2.0 3.0 0.00 0.00 0.00 19 1017.4
20260509213419 76 300 2.0 3.0 0.00 0.00 0.00 19 1017.5
20260509212439 76 294 2.0 2.0 0.00 0.00 0.00 19 1017.6
20260509211419 75 224 1.0 2.0 0.00 0.00 0.00 24 1017.7
20260509210419 75 271 2.0 2.0 0.00 0.00 0.00 25 1017.9
20260509205419 74 292 2.0 3.0 0.00 0.00 0.00 25 1017.9
20260509204420 74 306 2.0 3.0 0.00 0.00 0.00 25 1018.0
20260509203420 74 242 1.0 1.0 0.00 0.00 0.00 29 1018.2
20260509202420 73 273 1.0 2.0 0.00 0.00 0.00 31 1018.3
20260509201420 73 233 2.0 2.0 0.00 0.00 0.00 31 1018.4
20260509200421 72 281 1.0 2.0 0.00 0.00 0.00 31 1018.5
20260509195421 72 261 2.0 2.0 0.00 0.00 0.00 31 1018.6
20260509194420 71 285 2.0 2.0 0.00 0.00 0.00 35 1018.7
20260509193421 71 283 1.0 1.0 0.00 0.00 0.00 35 1018.8
20260509192421 70 212 1.0 2.0 0.00 0.00 0.00 32 1019.1
20260509191422 70 301 2.0 3.0 0.00 0.00 0.00 32 1019.1
20260509190422 70 278 1.0 2.0 0.00 0.00 0.00 31 1019.2
20260509185422 69 284 1.0 1.0 0.00 0.00 0.00 35 1019.3
20260509184422 69 269 2.0 3.0 0.00 0.00 0.00 37 1019.3
20260509183442 68 255 1.0 4.0 0.00 0.00 0.00 36 1019.6
20260509182422 67 307 2.0 2.0 0.00 0.00 0.00 37 1019.6
20260509181423 67 237 1.0 2.0 0.00 0.00 0.00 37 1019.6
20260509180423 66 248 2.0 3.0 0.00 0.00 0.00 38 1019.6
20260509175423 65 269 2.0 4.0 0.00 0.00 0.00 44 1019.8
20260509174423 64 281 1.0 3.0 0.00 0.00 0.00 43 1019.8
20260509173423 64 284 1.0 2.0 0.00 0.00 0.00 43 1019.9
20260509172423 63 231 2.0 5.0 0.00 0.00 0.00 46 1019.9
20260509171425 62 297 3.0 4.0 0.00 0.00 0.00 48 1019.9
20260509170424 62 278 1.0 2.0 0.00 0.00 0.00 49 1019.9
20260509165424 61 302 1.0 2.0 0.00 0.00 0.00 52 1019.9
20260509164424 60 243 1.0 1.0 0.00 0.00 0.00 52 1019.9
20260509163424 60 256 2.0 3.0 0.00 0.00 0.00 52 1020.0
20260509162424 59 0 0.0 0.0 0.00 0.00 0.00 54 1019.9
20260509161424 58 235 2.0 3.0 0.00 0.00 0.00 54 1019.9
20260509160425 58 320 1.0 2.0 0.00 0.00 0.00 56 1019.9
20260509155425 57 273 1.0 2.0 0.00 0.00 0.00 55 1019.8
20260509154425 56 229 1.0 1.0 0.00 0.00 0.00 56 1019.8
20260509153426 56 0 0.0 1.0 0.00 0.00 0.00 56 1019.9
20260509152425 55 279 2.0 3.0 0.00 0.00 0.00 58 1019.9
20260509151425 54 326 1.0 2.0 0.00 0.00 0.00 58 1019.9
20260509150425 54 232 1.0 1.0 0.00 0.00 0.00 58 1019.8
20260509145446 53 338 1.0 2.0 0.00 0.00 0.00 60 1019.9
20260509144426 53 181 1.0 2.0 0.00 0.00 0.00 60 1019.8
20260509143426 52 289 1.0 1.0 0.00 0.00 0.00 61 1019.8
20260509142427 52 294 1.0 2.0 0.00 0.00 0.00 61 1019.7
20260509141426 51 226 1.0 1.0 0.00 0.00 0.00 62 1019.7
20260509140426 51 209 1.0 2.0 0.00 0.00 0.00 64 1019.7
20260509135427 50 329 2.0 2.0 0.00 0.00 0.00 65 1019.6
20260509134427 50 228 1.0 2.0 0.00 0.00 0.00 67 1019.6
20260509133427 49 155 1.0 2.0 0.00 0.00 0.00 65 1019.6
20260509132428 49 211 1.0 1.0 0.00 0.00 0.00 65 1019.6
20260509131428 49 286 1.0 2.0 0.00 0.00 0.00 64 1019.5
20260509130428 49 180 2.0 2.0 0.00 0.00 0.00 64 1019.3
20260509125508 50 198 1.0 1.0 0.00 0.00 0.00 62 1019.2
20260509124448 50 157 1.0 1.0 0.00 0.00 0.00 61 1019.0
20260509123416 51 297 1.0 1.0 0.00 0.00 0.00 58 1019.0
20260509122456 51 356 1.0 2.0 0.00 0.00 0.00 58 1018.9
20260509121437 52 273 1.0 2.0 0.00 0.00 0.00 56 1018.9
20260509120417 52 210 1.0 1.0 0.00 0.00 0.00 55 1018.8
20260509115417 52 204 1.0 1.0 0.00 0.00 0.00 55 1018.6
20260509114418 52 217 1.0 1.0 0.00 0.00 0.00 55 1018.5
20260509113417 52 261 1.0 2.0 0.00 0.00 0.00 55 1018.5
20260509112418 53 200 1.0 1.0 0.00 0.00 0.00 55 1018.5
20260509111418 53 301 1.0 2.0 0.00 0.00 0.00 54 1018.4
20260509110418 53 207 1.0 2.0 0.00 0.00 0.00 54 1018.4
20260509105438 53 87 1.0 2.0 0.00 0.00 0.00 54 1018.3
20260509104418 53 8 1.0 1.0 0.00 0.00 0.00 54 1018.2
20260509103419 53 214 1.0 1.0 0.00 0.00 0.00 52 1018.0
20260509102419 54 68 1.0 1.0 0.00 0.00 0.00 50 1018.2
20260509101416 54 196 1.0 1.0 0.00 0.00 0.00 49 1018.0
20260509100420 54 233 1.0 2.0 0.00 0.00 0.00 48 1017.9
20260509095420 55 283 2.0 3.0 0.00 0.00 0.00 46 1017.9
20260509094419 55 189 1.0 1.0 0.00 0.00 0.00 48 1017.9
20260509093420 55 103 0.0 0.0 0.00 0.00 0.00 46 1017.8
20260509092420 55 202 2.0 2.0 0.00 0.00 0.00 44 1017.7
20260509091420 56 299 1.0 1.0 0.00 0.00 0.00 44 1017.6
20260509090417 56 119 1.0 1.0 0.00 0.00 0.00 44 1017.5
20260509085417 56 188 1.0 1.0 0.00 0.00 0.00 44 1017.5
20260509084437 56 121 1.0 1.0 0.00 0.00 0.00 44 1017.5
20260509083418 56 218 0.0 0.0 0.00 0.00 0.00 43 1017.5
20260509082418 57 151 1.0 1.0 0.00 0.00 0.00 44 1017.3
20260509081418 57 0.0 0.0 0.00 0.00 0.00 44 1017.3
20260509080418 57 117 1.0 1.0 0.00 0.00 0.00 44 1017.4
20260509075458 57 146 1.0 1.0 0.00 0.00 0.00 44 1017.2
20260509074459 58 100 1.0 1.0 0.00 0.00 0.00 44 1017.2
20260509073418 58 150 1.0 1.0 0.00 0.00 0.00 46 1017.1
20260509072419 58 88 0.0 1.0 0.00 0.00 0.00 46 1017.0
20260509071419 59 229 0.0 1.0 0.00 0.00 0.00 46 1016.7
20260509070419 59 116 1.0 1.0 0.00 0.00 0.00 44 1016.6
20260509065419 60 101 1.0 1.0 0.00 0.00 0.00 44 1016.3
20260509064419 60 0.0 0.0 0.00 0.00 0.00 44 1016.2
20260509063439 60 74 0.0 0.0 0.00 0.00 0.00 46 1016.0
20260509062439 60 272 1.0 1.0 0.00 0.00 0.00 52 1015.9
20260509061420 61 87 1.0 1.0 0.00 0.00 0.00 46 1015.8
20260509060419 61 96 1.0 1.0 0.00 0.00 0.00 48 1015.7
20260509055420 61 0.0 0.0 0.00 0.00 0.00 52 1015.6
20260509054420 62 0.0 0.0 0.00 0.00 0.00 50 1015.3
20260509053421 63 0 0.0 0.0 0.00 0.00 0.00 42 1015.2
20260509052420 63 0.0 0.0 0.00 0.00 0.00 41 1015.0
20260509051421 63 0.0 0.0 0.00 0.00 0.00 41 1014.9
20260509050421 64 0.0 0.0 0.00 0.00 0.00 41 1014.9
20260509045421 64 105 1.0 1.0 0.00 0.00 0.00 38 1014.8
20260509044421 65 0.0 0.0 0.00 0.00 0.00 38 1014.8
20260509043442 65 140 1.0 1.0 0.00 0.00 0.00 38 1014.7
20260509042422 66 0.0 0.0 0.00 0.00 0.00 36 1014.5
20260509041421 67 183 0.0 1.0 0.00 0.00 0.00 35 1014.3
20260509040442 68 0.0 0.0 0.00 0.00 0.00 32 1014.0
20260509035423 69 105 0.0 1.0 0.00 0.00 0.00 31 1013.8
20260509034422 70 0.0 0.0 0.00 0.00 0.00 30 1013.6
20260509033442 71 0.0 0.0 0.00 0.00 0.00 29 1013.4
20260509032423 72 0.0 0.0 0.00 0.00 0.00 29 1013.3
20260509031423 72 69 0.0 0.0 0.00 0.00 0.00 29 1013.2
20260509030423 73 283 0.0 1.0 0.00 0.00 0.00 29 1013.1
20260509025443 74 0.0 0.0 0.00 0.00 0.00 23 1013.0
20260509024423 74 0.0 0.0 0.00 0.00 0.00 25 1012.8
20260509023443 75 0 0.0 0.0 0.00 0.00 0.00 26 1012.7
20260509022424 76 271 1.0 1.0 0.00 0.00 0.00 25 1012.6
20260509021424 78 0.0 0.0 0.00 0.00 0.00 19 1012.6
20260509020424 78 182 0.0 0.0 0.00 0.00 0.00 18 1012.5
20260509015424 78 260 0.0 1.0 0.00 0.00 0.00 17 1012.4
20260509014425 78 0 0.0 0.0 0.00 0.00 0.00 18 1012.5
20260509013424 79 0 0.0 0.0 0.00 0.00 0.00 17 1012.4
20260509012425 80 0.0 0.0 0.00 0.00 0.00 17 1012.3
20260509011425 80 271 0.0 1.0 0.00 0.00 0.00 14 1012.3
20260509010425 79 324 0.0 1.0 0.00 0.00 0.00 14 1012.4
20260509005425 79 342 1.0 1.0 0.00 0.00 0.00 17 1012.5
20260509004425 79 292 2.0 2.0 0.00 0.00 0.00 17 1012.6
20260509003425 78 310 1.0 2.0 0.00 0.00 0.00 14 1012.7
20260509002426 79 265 0.0 1.0 0.00 0.00 0.00 14 1012.8
20260509001426 79 244 1.0 1.0 0.00 0.00 0.00 14 1013.0
20260509000426 80 274 1.0 1.0 0.00 0.00 0.00 14 1012.8
20260508235427 81 131 0.0 0.0 0.00 0.00 0.00 14 1012.8
20260508234426 80 286 1.0 3.0 0.00 0.00 0.00 17 1012.8
20260508233427 79 306 1.0 1.0 0.00 0.00 0.00 17 1013.1
20260508232427 78 274 0.0 1.0 0.00 0.00 0.00 17 1013.0
20260508231427 78 268 0.0 1.0 0.00 0.00 0.00 18 1013.0
20260508230427 77 260 1.0 1.0 0.00 0.00 0.00 18 1013.1
20260508225427 77 306 1.0 1.0 0.00 0.00 0.00 17 1013.1
20260508224428 77 289 0.0 1.0 0.00 0.00 0.00 18 1013.2
20260508223428 78 306 1.0 1.0 0.00 0.00 0.00 19 1013.4
20260508222428 78 0 0.0 0.0 0.00 0.00 0.00 19 1013.4
20260508221428 79 287 1.0 3.0 0.00 0.00 0.00 20 1013.5